contact:dominique.lefevre@mio.osupytheas.fr, maurice.libes@osupytheas.fr, didier.mallarino@osupytheas.fr
Project:EMSO http://www.emso-fr.org/EMSO-France
Depth: 2436.0 m
Title:EMSO Ligure Ouest : Data MII capteur MICROCAT
DateTime_Computer,Latitude,Longitude,Temperature,Conductivity,Pressure,DateTime_Instrument
DateTime_Computer,Latitude,Longitude,degC,S m-1,dbar,DateTime_Instrument
2021-10-17T00:01:03Z,42.805,6.029,13.2990,4.60006,2470.343,2021-10-17T02:02:26Z
2021-10-17T00:04:06Z,42.805,6.029,13.2990,4.60005,2470.39,2021-10-17T02:05:29Z
2021-10-17T00:07:09Z,42.805,6.029,13.2985,4.60008,2470.366,2021-10-17T02:08:32Z
2021-10-17T00:10:12Z,42.805,6.029,13.2986,4.60009,2470.39,2021-10-17T02:11:36Z
2021-10-17T00:13:15Z,42.805,6.029,13.2987,4.60005,2470.427,2021-10-17T02:14:39Z
2021-10-17T00:16:18Z,42.805,6.029,13.2989,4.60004,2470.343,2021-10-17T02:17:42Z
2021-10-17T00:19:21Z,42.805,6.029,13.2987,4.60003,2470.39,2021-10-17T02:20:45Z
2021-10-17T00:22:25Z,42.805,6.029,13.2989,4.60005,2470.39,2021-10-17T02:23:48Z
2021-10-17T00:25:28Z,42.805,6.029,13.2990,4.60003,2470.413,2021-10-17T02:26:51Z
2021-10-17T00:28:31Z,42.805,6.029,13.2989,4.60009,2470.39,2021-10-17T02:29:54Z
2021-10-17T00:31:34Z,42.805,6.029,13.2989,4.60003,2470.404,2021-10-17T02:32:57Z
2021-10-17T00:34:37Z,42.805,6.029,13.2988,4.60009,2470.39,2021-10-17T02:36:01Z
2021-10-17T00:37:40Z,42.805,6.029,13.2989,4.60009,2470.404,2021-10-17T02:39:04Z
2021-10-17T00:40:43Z,42.805,6.029,13.2988,4.60007,2470.404,2021-10-17T02:42:07Z
2021-10-17T00:43:46Z,42.805,6.029,13.2985,4.60007,2470.39,2021-10-17T02:45:10Z
2021-10-17T00:46:49Z,42.805,6.029,13.2989,4.60009,2470.38,2021-10-17T02:48:13Z
2021-10-17T00:49:53Z,42.805,6.029,13.2989,4.60009,2470.39,2021-10-17T02:51:16Z
2021-10-17T00:52:56Z,42.805,6.029,13.2984,4.60006,2470.404,2021-10-17T02:54:19Z
2021-10-17T00:55:59Z,42.805,6.029,13.2985,4.60003,2470.366,2021-10-17T02:57:22Z
2021-10-17T00:59:02Z,42.805,6.029,13.2987,4.60009,2470.39,2021-10-17T03:00:26Z
2021-10-17T01:02:05Z,42.805,6.029,13.2987,4.60005,2470.39,2021-10-17T03:03:29Z
2021-10-17T01:05:08Z,42.805,6.029,13.2984,4.60005,2470.38,2021-10-17T03:06:32Z
2021-10-17T01:08:11Z,42.805,6.029,13.2985,4.60009,2470.404,2021-10-17T03:09:35Z
2021-10-17T01:11:14Z,42.805,6.029,13.2988,4.60006,2470.39,2021-10-17T03:12:38Z
2021-10-17T01:14:18Z,42.805,6.029,13.2986,4.60007,2470.39,2021-10-17T03:15:41Z
2021-10-17T01:17:21Z,42.805,6.029,13.2990,4.60006,2470.366,2021-10-17T03:18:44Z
2021-10-17T01:20:24Z,42.805,6.029,13.2984,4.60004,2470.404,2021-10-17T03:21:47Z
2021-10-17T01:23:27Z,42.805,6.029,13.2991,4.60006,2470.413,2021-10-17T03:24:51Z
2021-10-17T01:26:30Z,42.805,6.029,13.2989,4.60011,2470.39,2021-10-17T03:27:54Z
2021-10-17T01:29:33Z,42.805,6.029,13.2989,4.60006,2470.39,2021-10-17T03:30:57Z
2021-10-17T01:32:36Z,42.805,6.029,13.2988,4.60007,2470.413,2021-10-17T03:34:00Z
2021-10-17T01:35:39Z,42.805,6.029,13.2990,4.60006,2470.413,2021-10-17T03:37:03Z
2021-10-17T01:38:43Z,42.805,6.029,13.2982,4.60010,2470.427,2021-10-17T03:40:06Z
2021-10-17T01:41:46Z,42.805,6.029,13.2986,4.60011,2470.413,2021-10-17T03:43:09Z
2021-10-17T01:44:49Z,42.805,6.029,13.2989,4.60006,2470.427,2021-10-17T03:46:12Z
2021-10-17T01:47:52Z,42.805,6.029,13.2986,4.60009,2470.427,2021-10-17T03:49:16Z
2021-10-17T01:50:55Z,42.805,6.029,13.2987,4.60010,2470.427,2021-10-17T03:52:19Z
2021-10-17T01:53:58Z,42.805,6.029,13.2986,4.60006,2470.413,2021-10-17T03:55:22Z
2021-10-17T01:57:01Z,42.805,6.029,13.2987,4.60006,2470.39,2021-10-17T03:58:25Z
2021-10-17T02:00:04Z,42.805,6.029,13.2990,4.60006,2470.427,2021-10-17T04:01:28Z
2021-10-17T02:03:07Z,42.805,6.029,13.2987,4.60008,2470.413,2021-10-17T04:04:31Z
2021-10-17T02:06:11Z,42.805,6.029,13.2988,4.60004,2470.45,2021-10-17T04:07:34Z
2021-10-17T02:09:14Z,42.805,6.029,13.2987,4.60009,2470.45,2021-10-17T04:10:37Z
2021-10-17T02:12:17Z,42.805,6.029,13.2989,4.60006,2470.413,2021-10-17T04:13:40Z
2021-10-17T02:15:20Z,42.805,6.029,13.2988,4.60007,2470.404,2021-10-17T04:16:44Z
2021-10-17T02:18:23Z,42.805,6.029,13.2990,4.60008,2470.437,2021-10-17T04:19:47Z
2021-10-17T02:21:26Z,42.805,6.029,13.2987,4.60006,2470.413,2021-10-17T04:22:50Z
2021-10-17T02:24:29Z,42.805,6.029,13.2986,4.60005,2470.404,2021-10-17T04:25:53Z
2021-10-17T02:27:33Z,42.805,6.029,13.2988,4.60006,2470.437,2021-10-17T04:28:56Z
2021-10-17T02:30:36Z,42.805,6.029,13.2988,4.60009,2470.46,2021-10-17T04:31:59Z
2021-10-17T02:33:39Z,42.805,6.029,13.2987,4.60006,2470.437,2021-10-17T04:35:02Z
2021-10-17T02:36:42Z,42.805,6.029,13.2988,4.60009,2470.46,2021-10-17T04:38:05Z
2021-10-17T02:39:45Z,42.805,6.029,13.2993,4.60006,2470.437,2021-10-17T04:41:09Z
2021-10-17T02:42:48Z,42.805,6.029,13.2989,4.60008,2470.437,2021-10-17T04:44:12Z
2021-10-17T02:45:51Z,42.805,6.029,13.2986,4.60006,2470.45,2021-10-17T04:47:15Z
2021-10-17T02:48:54Z,42.805,6.029,13.2983,4.60007,2470.427,2021-10-17T04:50:18Z
2021-10-17T02:51:57Z,42.805,6.029,13.2983,4.60005,2470.437,2021-10-17T04:53:21Z
2021-10-17T02:55:01Z,42.805,6.029,13.2991,4.60005,2470.45,2021-10-17T04:56:24Z
2021-10-17T02:58:04Z,42.805,6.029,13.2984,4.60007,2470.474,2021-10-17T04:59:27Z
2021-10-17T03:01:07Z,42.805,6.029,13.2987,4.60004,2470.474,2021-10-17T05:02:30Z
2021-10-17T03:04:10Z,42.805,6.029,13.2988,4.60007,2470.46,2021-10-17T05:05:34Z
2021-10-17T03:07:13Z,42.805,6.029,13.2987,4.60006,2470.497,2021-10-17T05:08:37Z
2021-10-17T03:10:16Z,42.805,6.029,13.2990,4.60006,2470.474,2021-10-17T05:11:40Z
2021-10-17T03:13:19Z,42.805,6.029,13.2990,4.60006,2470.474,2021-10-17T05:14:43Z
2021-10-17T03:16:22Z,42.805,6.029,13.2987,4.60006,2470.46,2021-10-17T05:17:46Z
2021-10-17T03:19:26Z,42.805,6.029,13.2987,4.60006,2470.474,2021-10-17T05:20:49Z
2021-10-17T03:22:29Z,42.805,6.029,13.2988,4.60005,2470.46,2021-10-17T05:23:52Z
2021-10-17T03:25:32Z,42.805,6.029,13.2986,4.60007,2470.497,2021-10-17T05:26:55Z
2021-10-17T03:28:35Z,42.805,6.029,13.2987,4.60010,2470.437,2021-10-17T05:29:59Z
2021-10-17T03:31:38Z,42.805,6.029,13.2990,4.60011,2470.46,2021-10-17T05:33:02Z
2021-10-17T03:34:41Z,42.805,6.029,13.2986,4.60008,2470.474,2021-10-17T05:36:05Z
2021-10-17T03:37:44Z,42.805,6.029,13.2989,4.60007,2470.437,2021-10-17T05:39:08Z
2021-10-17T03:40:47Z,42.805,6.029,13.2987,4.60009,2470.437,2021-10-17T05:42:11Z
2021-10-17T03:43:51Z,42.805,6.029,13.2986,4.60009,2470.474,2021-10-17T05:45:14Z
2021-10-17T03:46:54Z,42.805,6.029,13.2986,4.60007,2470.497,2021-10-17T05:48:17Z
2021-10-17T03:49:57Z,42.805,6.029,13.2986,4.60005,2470.483,2021-10-17T05:51:20Z
2021-10-17T03:53:00Z,42.805,6.029,13.2985,4.60004,2470.497,2021-10-17T05:54:24Z
2021-10-17T03:56:03Z,42.805,6.029,13.2990,4.60009,2470.474,2021-10-17T05:57:27Z
2021-10-17T03:59:06Z,42.805,6.029,13.2988,4.60009,2470.46,2021-10-17T06:00:30Z
2021-10-17T04:02:09Z,42.805,6.029,13.2989,4.60007,2470.483,2021-10-17T06:03:33Z
2021-10-17T04:05:12Z,42.805,6.029,13.2986,4.60006,2470.52,2021-10-17T06:06:36Z
2021-10-17T04:08:16Z,42.805,6.029,13.2988,4.60007,2470.52,2021-10-17T06:09:39Z
2021-10-17T04:11:19Z,42.805,6.029,13.2988,4.60007,2470.483,2021-10-17T06:12:42Z
2021-10-17T04:14:22Z,42.805,6.029,13.2986,4.60004,2470.483,2021-10-17T06:15:45Z
2021-10-17T04:17:25Z,42.805,6.029,13.2990,4.60005,2470.483,2021-10-17T06:18:49Z
2021-10-17T04:20:28Z,42.805,6.029,13.2987,4.60003,2470.507,2021-10-17T06:21:52Z
2021-10-17T04:23:31Z,42.805,6.029,13.2989,4.60005,2470.497,2021-10-17T06:24:55Z
2021-10-17T04:26:34Z,42.805,6.029,13.2984,4.60011,2470.52,2021-10-17T06:27:58Z
2021-10-17T04:29:37Z,42.805,6.029,13.2987,4.60006,2470.52,2021-10-17T06:31:01Z
2021-10-17T04:32:41Z,42.805,6.029,13.2988,4.60006,2470.507,2021-10-17T06:34:04Z
2021-10-17T04:35:44Z,42.805,6.029,13.2990,4.60006,2470.52,2021-10-17T06:37:07Z
2021-10-17T04:38:47Z,42.805,6.029,13.2987,4.60006,2470.483,2021-10-17T06:40:10Z
2021-10-17T04:41:50Z,42.805,6.029,13.2990,4.60007,2470.52,2021-10-17T06:43:14Z
2021-10-17T04:44:53Z,42.805,6.029,13.2988,4.60007,2470.507,2021-10-17T06:46:17Z
2021-10-17T04:47:56Z,42.805,6.029,13.2986,4.60008,2470.544,2021-10-17T06:49:20Z
2021-10-17T04:50:59Z,42.805,6.029,13.2986,4.60009,2470.507,2021-10-17T06:52:23Z
2021-10-17T04:54:02Z,42.805,6.029,13.2990,4.60005,2470.507,2021-10-17T06:55:26Z
2021-10-17T04:57:06Z,42.805,6.029,13.2989,4.60009,2470.52,2021-10-17T06:58:29Z
2021-10-17T05:00:09Z,42.805,6.029,13.2984,4.60006,2470.483,2021-10-17T07:01:32Z
2021-10-17T05:03:12Z,42.805,6.029,13.2984,4.60006,2470.497,2021-10-17T07:04:35Z
2021-10-17T05:06:15Z,42.805,6.029,13.2991,4.60006,2470.52,2021-10-17T07:07:39Z
2021-10-17T05:09:18Z,42.805,6.029,13.2991,4.60008,2470.493,2021-10-17T07:10:42Z
2021-10-17T05:12:21Z,42.805,6.029,13.2990,4.60006,2470.507,2021-10-17T07:13:45Z
2021-10-17T05:15:24Z,42.805,6.029,13.2990,4.60008,2470.483,2021-10-17T07:16:48Z
2021-10-17T05:18:27Z,42.805,6.029,13.2985,4.60009,2470.507,2021-10-17T07:19:51Z
2021-10-17T05:21:31Z,42.805,6.029,13.2987,4.60006,2470.52,2021-10-17T07:22:54Z
2021-10-17T05:24:34Z,42.805,6.029,13.2989,4.60007,2470.507,2021-10-17T07:25:57Z
2021-10-17T05:27:37Z,42.805,6.029,13.2989,4.60006,2470.52,2021-10-17T07:29:00Z
2021-10-17T05:30:40Z,42.805,6.029,13.2987,4.60005,2470.53,2021-10-17T07:32:04Z
2021-10-17T05:33:43Z,42.805,6.029,13.2990,4.60005,2470.497,2021-10-17T07:35:07Z
2021-10-17T05:36:46Z,42.805,6.029,13.2989,4.60006,2470.544,2021-10-17T07:38:10Z
2021-10-17T05:39:49Z,42.805,6.029,13.2987,4.60006,2470.483,2021-10-17T07:41:13Z
2021-10-17T05:42:52Z,42.805,6.029,13.2990,4.60008,2470.507,2021-10-17T07:44:16Z
2021-10-17T05:45:56Z,42.805,6.029,13.2991,4.60006,2470.507,2021-10-17T07:47:19Z
2021-10-17T05:48:59Z,42.805,6.029,13.2988,4.60006,2470.497,2021-10-17T07:50:22Z
2021-10-17T05:52:02Z,42.805,6.029,13.2984,4.60006,2470.483,2021-10-17T07:53:25Z
2021-10-17T05:55:05Z,42.805,6.029,13.2990,4.60006,2470.497,2021-10-17T07:56:29Z
2021-10-17T05:58:08Z,42.805,6.029,13.2987,4.60006,2470.497,2021-10-17T07:59:32Z
2021-10-17T06:01:11Z,42.805,6.029,13.2985,4.60005,2470.507,2021-10-17T08:02:35Z
2021-10-17T06:04:14Z,42.805,6.029,13.2988,4.60005,2470.52,2021-10-17T08:05:38Z
2021-10-17T06:07:17Z,42.805,6.029,13.2986,4.60005,2470.483,2021-10-17T08:08:41Z
2021-10-17T06:10:21Z,42.805,6.029,13.2990,4.60004,2470.507,2021-10-17T08:11:44Z
2021-10-17T06:13:24Z,42.805,6.029,13.2988,4.60005,2470.483,2021-10-17T08:14:47Z
2021-10-17T06:16:27Z,42.805,6.029,13.2991,4.60005,2470.497,2021-10-17T08:17:50Z
2021-10-17T06:19:30Z,42.805,6.029,13.2986,4.60004,2470.52,2021-10-17T08:20:53Z
2021-10-17T06:22:33Z,42.805,6.029,13.2989,4.60006,2470.483,2021-10-17T08:23:57Z
2021-10-17T06:25:36Z,42.805,6.029,13.2989,4.60007,2470.497,2021-10-17T08:27:00Z
2021-10-17T06:28:39Z,42.805,6.029,13.2988,4.60006,2470.46,2021-10-17T08:30:03Z
2021-10-17T06:31:42Z,42.805,6.029,13.2990,4.60006,2470.497,2021-10-17T08:33:06Z
2021-10-17T06:34:45Z,42.805,6.029,13.2984,4.60008,2470.507,2021-10-17T08:36:09Z
2021-10-17T06:37:49Z,42.805,6.029,13.2987,4.60006,2470.52,2021-10-17T08:39:12Z
2021-10-17T06:40:52Z,42.805,6.029,13.2991,4.60007,2470.483,2021-10-17T08:42:15Z
2021-10-17T06:43:55Z,42.805,6.029,13.2987,4.60006,2470.507,2021-10-17T08:45:18Z
2021-10-17T06:46:58Z,42.805,6.029,13.2988,4.60006,2470.497,2021-10-17T08:48:22Z
2021-10-17T06:50:01Z,42.805,6.029,13.2991,4.60007,2470.544,2021-10-17T08:51:25Z
2021-10-17T06:53:04Z,42.805,6.029,13.2989,4.60005,2470.497,2021-10-17T08:54:28Z
2021-10-17T06:56:07Z,42.805,6.029,13.2990,4.60006,2470.497,2021-10-17T08:57:31Z
2021-10-17T06:59:10Z,42.805,6.029,13.2992,4.60008,2470.483,2021-10-17T09:00:34Z
2021-10-17T07:02:14Z,42.805,6.029,13.2991,4.60004,2470.47,2021-10-17T09:03:37Z
2021-10-17T07:05:17Z,42.805,6.029,13.2988,4.60008,2470.507,2021-10-17T09:06:40Z
2021-10-17T07:08:20Z,42.805,6.029,13.2988,4.60006,2470.507,2021-10-17T09:09:43Z
2021-10-17T07:11:23Z,42.805,6.029,13.2991,4.60007,2470.483,2021-10-17T09:12:47Z
2021-10-17T07:14:26Z,42.805,6.029,13.2988,4.60004,2470.483,2021-10-17T09:15:50Z
2021-10-17T07:17:29Z,42.805,6.029,13.2989,4.60005,2470.507,2021-10-17T09:18:53Z
2021-10-17T07:20:32Z,42.805,6.029,13.2989,4.60004,2470.497,2021-10-17T09:21:56Z
2021-10-17T07:23:35Z,42.805,6.029,13.2984,4.60003,2470.46,2021-10-17T09:24:59Z
2021-10-17T07:26:39Z,42.805,6.029,13.2984,4.60009,2470.483,2021-10-17T09:28:02Z
2021-10-17T07:29:42Z,42.805,6.029,13.2985,4.60005,2470.483,2021-10-17T09:31:05Z
2021-10-17T07:32:45Z,42.805,6.029,13.2990,4.60004,2470.507,2021-10-17T09:34:08Z
2021-10-17T07:35:48Z,42.805,6.029,13.2983,4.60008,2470.474,2021-10-17T09:37:12Z
2021-10-17T07:38:51Z,42.805,6.029,13.2986,4.60006,2470.46,2021-10-17T09:40:15Z
2021-10-17T07:41:54Z,42.805,6.029,13.2990,4.60006,2470.483,2021-10-17T09:43:18Z
2021-10-17T07:44:57Z,42.805,6.029,13.2988,4.60004,2470.46,2021-10-17T09:46:21Z
2021-10-17T07:48:00Z,42.805,6.029,13.2991,4.60005,2470.497,2021-10-17T09:49:24Z
2021-10-17T07:51:04Z,42.805,6.029,13.2988,4.60005,2470.46,2021-10-17T09:52:27Z
2021-10-17T07:54:07Z,42.805,6.029,13.2986,4.60006,2470.497,2021-10-17T09:55:30Z
2021-10-17T07:57:10Z,42.805,6.029,13.2991,4.60004,2470.437,2021-10-17T09:58:33Z
2021-10-17T08:00:13Z,42.805,6.029,13.2986,4.60004,2470.474,2021-10-17T10:01:37Z
2021-10-17T08:03:16Z,42.805,6.029,13.2986,4.60006,2470.437,2021-10-17T10:04:40Z
2021-10-17T08:06:19Z,42.805,6.029,13.2987,4.60006,2470.46,2021-10-17T10:07:43Z
2021-10-17T08:09:22Z,42.805,6.029,13.2986,4.60008,2470.437,2021-10-17T10:10:46Z
2021-10-17T08:12:25Z,42.805,6.029,13.2991,4.60004,2470.46,2021-10-17T10:13:49Z
2021-10-17T08:15:29Z,42.805,6.029,13.2986,4.60004,2470.497,2021-10-17T10:16:52Z
2021-10-17T08:18:32Z,42.805,6.029,13.2988,4.60005,2470.474,2021-10-17T10:19:55Z
2021-10-17T08:21:35Z,42.805,6.029,13.2989,4.60006,2470.474,2021-10-17T10:22:58Z
2021-10-17T08:24:38Z,42.805,6.029,13.2986,4.60006,2470.46,2021-10-17T10:26:02Z
2021-10-17T08:27:41Z,42.805,6.029,13.2986,4.60004,2470.46,2021-10-17T10:29:05Z
2021-10-17T08:30:44Z,42.805,6.029,13.2990,4.60004,2470.474,2021-10-17T10:32:08Z
2021-10-17T08:33:47Z,42.805,6.029,13.2989,4.60005,2470.483,2021-10-17T10:35:11Z
2021-10-17T08:36:50Z,42.805,6.029,13.2986,4.60006,2470.437,2021-10-17T10:38:14Z
2021-10-17T08:39:54Z,42.805,6.029,13.2989,4.60004,2470.437,2021-10-17T10:41:17Z
2021-10-17T08:42:57Z,42.805,6.029,13.2986,4.60003,2470.437,2021-10-17T10:44:20Z
2021-10-17T08:46:00Z,42.805,6.029,13.2990,4.60004,2470.437,2021-10-17T10:47:23Z
2021-10-17T08:49:03Z,42.805,6.029,13.2989,4.60005,2470.437,2021-10-17T10:50:27Z
2021-10-17T08:52:06Z,42.805,6.029,13.2989,4.60006,2470.46,2021-10-17T10:53:30Z
2021-10-17T08:55:09Z,42.805,6.029,13.2990,4.60006,2470.46,2021-10-17T10:56:33Z
2021-10-17T08:58:12Z,42.805,6.029,13.2984,4.60004,2470.46,2021-10-17T10:59:36Z
2021-10-17T09:01:15Z,42.805,6.029,13.2986,4.60003,2470.427,2021-10-17T11:02:39Z
2021-10-17T09:04:19Z,42.805,6.029,13.2991,4.60004,2470.474,2021-10-17T11:05:42Z
2021-10-17T09:07:22Z,42.805,6.029,13.2986,4.60007,2470.413,2021-10-17T11:08:45Z
2021-10-17T09:10:25Z,42.805,6.029,13.2991,4.60006,2470.437,2021-10-17T11:11:48Z
2021-10-17T09:13:28Z,42.805,6.029,13.2991,4.60005,2470.45,2021-10-17T11:14:52Z
2021-10-17T09:16:31Z,42.805,6.029,13.2988,4.60006,2470.474,2021-10-17T11:17:55Z
2021-10-17T09:19:34Z,42.805,6.029,13.2987,4.60005,2470.46,2021-10-17T11:20:58Z
2021-10-17T09:22:37Z,42.805,6.029,13.2986,4.60005,2470.427,2021-10-17T11:24:01Z
2021-10-17T09:25:40Z,42.805,6.029,13.2988,4.60008,2470.437,2021-10-17T11:27:04Z
2021-10-17T09:28:44Z,42.805,6.029,13.2990,4.60007,2470.437,2021-10-17T11:30:07Z
2021-10-17T09:31:47Z,42.805,6.029,13.2984,4.60004,2470.413,2021-10-17T11:33:10Z
2021-10-17T09:34:50Z,42.805,6.029,13.2989,4.60005,2470.427,2021-10-17T11:36:13Z
2021-10-17T09:37:53Z,42.805,6.029,13.2986,4.60003,2470.413,2021-10-17T11:39:17Z
2021-10-17T09:40:56Z,42.805,6.029,13.2987,4.60005,2470.427,2021-10-17T11:42:20Z
2021-10-17T09:43:59Z,42.805,6.029,13.2988,4.60003,2470.427,2021-10-17T11:45:23Z
2021-10-17T09:47:02Z,42.805,6.029,13.2990,4.60005,2470.427,2021-10-17T11:48:26Z
2021-10-17T09:50:05Z,42.805,6.029,13.2989,4.60004,2470.413,2021-10-17T11:51:29Z
2021-10-17T09:53:09Z,42.805,6.029,13.2990,4.60005,2470.427,2021-10-17T11:54:32Z
2021-10-17T09:56:12Z,42.805,6.029,13.2987,4.60003,2470.413,2021-10-17T11:57:35Z
2021-10-17T09:59:15Z,42.805,6.029,13.2989,4.60005,2470.413,2021-10-17T12:00:38Z
2021-10-17T10:02:18Z,42.805,6.029,13.2987,4.60004,2470.39,2021-10-17T12:03:42Z
2021-10-17T10:05:21Z,42.805,6.029,13.2990,4.60004,2470.427,2021-10-17T12:06:45Z
2021-10-17T10:08:24Z,42.805,6.029,13.2983,4.60005,2470.427,2021-10-17T12:09:48Z
2021-10-17T10:11:27Z,42.805,6.029,13.2986,4.60004,2470.413,2021-10-17T12:12:51Z
2021-10-17T10:14:30Z,42.805,6.029,13.2987,4.60003,2470.39,2021-10-17T12:15:54Z
2021-10-17T10:17:34Z,42.805,6.029,13.2992,4.60004,2470.399,2021-10-17T12:18:57Z
2021-10-17T10:20:37Z,42.805,6.029,13.2988,4.60003,2470.413,2021-10-17T12:22:00Z
2021-10-17T10:23:40Z,42.805,6.029,13.2987,4.60004,2470.45,2021-10-17T12:25:04Z
2021-10-17T10:26:43Z,42.805,6.029,13.2986,4.60005,2470.427,2021-10-17T12:28:07Z
2021-10-17T10:29:46Z,42.805,6.029,13.2986,4.60004,2470.413,2021-10-17T12:31:10Z
2021-10-17T10:32:49Z,42.805,6.029,13.2990,4.60003,2470.45,2021-10-17T12:34:13Z
2021-10-17T10:35:52Z,42.805,6.029,13.2988,4.60003,2470.427,2021-10-17T12:37:16Z
2021-10-17T10:38:56Z,42.805,6.029,13.2988,4.60003,2470.413,2021-10-17T12:40:19Z
2021-10-17T10:41:59Z,42.805,6.029,13.2986,4.60004,2470.413,2021-10-17T12:43:22Z
2021-10-17T10:45:02Z,42.805,6.029,13.2988,4.60003,2470.38,2021-10-17T12:46:25Z
2021-10-17T10:48:05Z,42.805,6.029,13.2988,4.60003,2470.427,2021-10-17T12:49:29Z
2021-10-17T10:51:08Z,42.805,6.029,13.2991,4.60003,2470.413,2021-10-17T12:52:32Z
2021-10-17T10:54:11Z,42.805,6.029,13.2988,4.60003,2470.427,2021-10-17T12:55:35Z
2021-10-17T10:57:14Z,42.805,6.029,13.2988,4.60005,2470.404,2021-10-17T12:58:38Z
2021-10-17T11:00:17Z,42.805,6.029,13.2989,4.60003,2470.413,2021-10-17T13:01:41Z
2021-10-17T11:03:21Z,42.805,6.029,13.2989,4.60006,2470.38,2021-10-17T13:04:44Z
2021-10-17T11:06:24Z,42.805,6.029,13.2988,4.60005,2470.404,2021-10-17T13:07:47Z
2021-10-17T11:09:27Z,42.805,6.029,13.2986,4.60006,2470.413,2021-10-17T13:10:50Z
2021-10-17T11:12:30Z,42.805,6.029,13.2989,4.60003,2470.404,2021-10-17T13:13:54Z
2021-10-17T11:15:33Z,42.805,6.029,13.2990,4.60005,2470.39,2021-10-17T13:16:57Z
2021-10-17T11:18:36Z,42.805,6.029,13.2988,4.60006,2470.427,2021-10-17T13:20:00Z
2021-10-17T11:21:39Z,42.805,6.029,13.2990,4.60004,2470.413,2021-10-17T13:23:03Z
2021-10-17T11:24:42Z,42.805,6.029,13.2985,4.60009,2470.413,2021-10-17T13:26:06Z
2021-10-17T11:27:46Z,42.805,6.029,13.2990,4.60005,2470.39,2021-10-17T13:29:09Z
2021-10-17T11:30:49Z,42.805,6.029,13.2985,4.60003,2470.427,2021-10-17T13:32:12Z
2021-10-17T11:33:52Z,42.805,6.029,13.2987,4.60003,2470.427,2021-10-17T13:35:15Z
2021-10-17T11:36:55Z,42.805,6.029,13.2986,4.60004,2470.39,2021-10-17T13:38:19Z
2021-10-17T11:39:58Z,42.805,6.029,13.2988,4.60007,2470.427,2021-10-17T13:41:22Z
2021-10-17T11:43:01Z,42.805,6.029,13.2992,4.60007,2470.427,2021-10-17T13:44:25Z
2021-10-17T11:46:04Z,42.805,6.029,13.2990,4.60006,2470.427,2021-10-17T13:47:28Z
2021-10-17T11:49:07Z,42.805,6.029,13.2990,4.60006,2470.427,2021-10-17T13:50:31Z
2021-10-17T11:52:11Z,42.805,6.029,13.2999,4.60005,2470.413,2021-10-17T13:53:34Z
2021-10-17T11:55:14Z,42.805,6.029,13.2986,4.60003,2470.404,2021-10-17T13:56:37Z
2021-10-17T11:58:17Z,42.805,6.029,13.2986,4.60003,2470.39,2021-10-17T13:59:40Z
2021-10-17T12:01:20Z,42.805,6.029,13.2989,4.60003,2470.413,2021-10-17T14:02:44Z
2021-10-17T12:04:23Z,42.805,6.029,13.2986,4.60005,2470.366,2021-10-17T14:05:47Z
2021-10-17T12:07:26Z,42.805,6.029,13.2987,4.60005,2470.46,2021-10-17T14:08:50Z
2021-10-17T12:10:29Z,42.805,6.029,13.2985,4.60003,2470.39,2021-10-17T14:11:53Z
2021-10-17T12:13:32Z,42.805,6.029,13.2987,4.60003,2470.39,2021-10-17T14:14:56Z
2021-10-17T12:16:36Z,42.805,6.029,13.2990,4.60004,2470.413,2021-10-17T14:17:59Z
2021-10-17T12:19:39Z,42.805,6.029,13.2989,4.60003,2470.404,2021-10-17T14:21:02Z
2021-10-17T12:22:42Z,42.805,6.029,13.2988,4.60003,2470.39,2021-10-17T14:24:05Z
2021-10-17T12:25:45Z,42.805,6.029,13.2989,4.60003,2470.413,2021-10-17T14:27:09Z
2021-10-17T12:28:48Z,42.805,6.029,13.2984,4.60003,2470.39,2021-10-17T14:30:12Z
2021-10-17T12:31:51Z,42.805,6.029,13.2986,4.60003,2470.413,2021-10-17T14:33:15Z
2021-10-17T12:34:54Z,42.805,6.029,13.2994,4.60002,2470.427,2021-10-17T14:36:18Z
2021-10-17T12:37:58Z,42.805,6.029,13.2990,4.60007,2470.404,2021-10-17T14:39:21Z
2021-10-17T12:41:01Z,42.805,6.029,13.2988,4.60008,2470.427,2021-10-17T14:42:24Z
2021-10-17T12:44:04Z,42.805,6.029,13.2990,4.60003,2470.39,2021-10-17T14:45:27Z
2021-10-17T12:47:07Z,42.805,6.029,13.2986,4.60005,2470.427,2021-10-17T14:48:31Z
2021-10-17T12:50:10Z,42.805,6.029,13.2987,4.60003,2470.39,2021-10-17T14:51:34Z
2021-10-17T12:53:13Z,42.805,6.029,13.2988,4.60003,2470.45,2021-10-17T14:54:37Z
2021-10-17T12:56:16Z,42.805,6.029,13.2987,4.60009,2470.437,2021-10-17T14:57:40Z
2021-10-17T12:59:19Z,42.805,6.029,13.2989,4.60003,2470.413,2021-10-17T15:00:43Z
2021-10-17T13:02:23Z,42.805,6.029,13.2986,4.60003,2470.45,2021-10-17T15:03:46Z
2021-10-17T13:05:26Z,42.805,6.029,13.2989,4.60003,2470.437,2021-10-17T15:06:49Z
2021-10-17T13:08:29Z,42.805,6.029,13.2987,4.60003,2470.413,2021-10-17T15:09:52Z
2021-10-17T13:11:32Z,42.805,6.029,13.2989,4.60006,2470.46,2021-10-17T15:12:56Z
2021-10-17T13:14:35Z,42.805,6.029,13.2993,4.60005,2470.483,2021-10-17T15:15:59Z
2021-10-17T13:17:38Z,42.805,6.029,13.2990,4.60006,2470.483,2021-10-17T15:19:02Z
2021-10-17T13:20:41Z,42.805,6.029,13.2993,4.60009,2470.474,2021-10-17T15:22:05Z
2021-10-17T13:23:44Z,42.805,6.029,13.2988,4.60003,2470.427,2021-10-17T15:25:08Z
2021-10-17T13:26:48Z,42.805,6.029,13.2985,4.60010,2470.437,2021-10-17T15:28:11Z
2021-10-17T13:29:51Z,42.805,6.029,13.2990,4.60003,2470.45,2021-10-17T15:31:14Z
2021-10-17T13:32:54Z,42.805,6.029,13.2991,4.60003,2470.437,2021-10-17T15:34:17Z
2021-10-17T13:35:57Z,42.805,6.029,13.2991,4.60004,2470.437,2021-10-17T15:37:21Z
2021-10-17T13:39:00Z,42.805,6.029,13.2990,4.60005,2470.437,2021-10-17T15:40:24Z
2021-10-17T13:42:03Z,42.805,6.029,13.2991,4.60003,2470.497,2021-10-17T15:43:27Z
2021-10-17T13:45:06Z,42.805,6.029,13.2986,4.60003,2470.45,2021-10-17T15:46:30Z
2021-10-17T13:48:09Z,42.805,6.029,13.2986,4.60006,2470.437,2021-10-17T15:49:33Z
2021-10-17T13:51:13Z,42.805,6.029,13.2987,4.60003,2470.46,2021-10-17T15:52:36Z
2021-10-17T13:54:16Z,42.805,6.029,13.2988,4.60003,2470.437,2021-10-17T15:55:39Z
2021-10-17T13:57:19Z,42.805,6.029,13.2989,4.60003,2470.497,2021-10-17T15:58:42Z
2021-10-17T14:00:22Z,42.805,6.029,13.2986,4.60003,2470.46,2021-10-17T16:01:46Z
2021-10-17T14:03:25Z,42.805,6.029,13.2988,4.60003,2470.437,2021-10-17T16:04:49Z
2021-10-17T14:06:28Z,42.805,6.029,13.2990,4.60003,2470.483,2021-10-17T16:07:52Z
2021-10-17T14:09:31Z,42.805,6.029,13.2987,4.60009,2470.483,2021-10-17T16:10:55Z
2021-10-17T14:12:34Z,42.805,6.029,13.2991,4.60014,2470.46,2021-10-17T16:13:58Z
2021-10-17T14:15:38Z,42.805,6.029,13.2986,4.60003,2470.437,2021-10-17T16:17:01Z
2021-10-17T14:18:41Z,42.805,6.029,13.2986,4.60003,2470.46,2021-10-17T16:20:04Z
2021-10-17T14:21:44Z,42.805,6.029,13.2990,4.60003,2470.46,2021-10-17T16:23:07Z
2021-10-17T14:24:47Z,42.805,6.029,13.2991,4.60003,2470.46,2021-10-17T16:26:11Z
2021-10-17T14:27:50Z,42.805,6.029,13.2989,4.60006,2470.474,2021-10-17T16:29:14Z
2021-10-17T14:30:53Z,42.805,6.029,13.2987,4.60005,2470.437,2021-10-17T16:32:17Z
2021-10-17T14:33:56Z,42.805,6.029,13.2988,4.60010,2470.483,2021-10-17T16:35:20Z
2021-10-17T14:36:59Z,42.805,6.029,13.2990,4.60003,2470.483,2021-10-17T16:38:23Z
2021-10-17T14:40:03Z,42.805,6.029,13.2991,4.60004,2470.46,2021-10-17T16:41:26Z
2021-10-17T14:43:06Z,42.805,6.029,13.2989,4.60004,2470.46,2021-10-17T16:44:29Z
2021-10-17T14:46:09Z,42.805,6.029,13.2988,4.60004,2470.46,2021-10-17T16:47:33Z
2021-10-17T14:49:12Z,42.805,6.029,13.2988,4.60006,2470.483,2021-10-17T16:50:36Z
2021-10-17T14:52:15Z,42.805,6.029,13.2985,4.60008,2470.507,2021-10-17T16:53:39Z
2021-10-17T14:55:18Z,42.805,6.029,13.2987,4.60008,2470.497,2021-10-17T16:56:42Z
2021-10-17T14:58:21Z,42.805,6.029,13.2993,4.60004,2470.497,2021-10-17T16:59:45Z
2021-10-17T15:01:25Z,42.805,6.029,13.2989,4.60005,2470.497,2021-10-17T17:02:48Z